Altus AFB, OK

6:21 AM CST on December 15, 2017 (GMT -0600)
Altus Air Force Base

Weather History for KLTS - April, 2013

Change the Weather History Date:

Tuesday, April 2, 2013

  Actual Average Record
Temperature  
Mean Temperature 40 °F -  
Max Temperature 43 °F 68 °F 89 °F (2003)
Min Temperature 37 °F 44 °F 32 °F (2016)
Degree Days  
Heating Degree Days 25    
Moisture  
Dew Point 38 °F    
Average Humidity 95    
Maximum Humidity 100    
Minimum Humidity 76    
Precipitation  
Precipitation 0.00 in - - ()
Sea Level Pressure  
Sea Level Pressure 30.10 in    
Wind  
Wind Speed 20 mph (NNE)    
Max Wind Speed 24 mph    
Max Gust Speed 32 mph    
Visibility 7 miles    
Events Rain    
Averages and records for this station are not official NWS values.
T = Trace of Precipitation, MM = Missing Value Source: NWS Daily Summary

Daily Weather History Graph

Daily Weather History Graph

Search for Another Location

Airport or City:

Trip Planner

Search our weather history database for the weather conditions in past years. The results will help you decide how hot, cold, wet, or windy it might be!

Date:

Astronomy

Apr. 02, 2013 Rise Set
Actual Time 7:22 AM CDT 7:59 PM CDT
Civil Twilight 6:56 AM CDT 8:24 PM CDT
Nautical Twilight 6:27 AM CDT 8:54 PM CDT
Astronomical Twilight 5:56 AM CDT 9:25 PM CDT
Moon 1:55 AM CDT (4/2) 12:24 PM CDT (4/2)
Length of Visible Light 13h 27m
Length of Day
12h 36m
Waning Gibbous, 55% of the Moon is Illuminated
Apr 2
Waning Gibbous
Apr 2
Last Quarter
Apr 10
New
Apr 18
First Quarter
Apr 25
Full

Hourly Weather History & Observations

Time (CDT) Temp. Windchill Dew Point Humidity Pressure Visibility Wind Dir Wind Speed Gust Speed Precip Events Conditions
12:58 AM 43.2 °F 34.2 °F 39.2 °F 86% 30.04 in 10.0 mi NNE 21.9 mph 31.1 mph N/A   Mostly Cloudy
1:58 AM 42.6 °F 33.3 °F 37.9 °F 83% 30.05 in 10.0 mi NNE 23.0 mph 28.8 mph N/A   Scattered Clouds
2:58 AM 41.7 °F 32.1 °F 35.6 °F 79% 30.05 in 10.0 mi NNE 23.0 mph 29.9 mph N/A   Overcast
3:58 AM 41.7 °F 32.6 °F 34.5 °F 76% 30.04 in 10.0 mi NNE 20.7 mph 28.8 mph N/A   Overcast
4:13 AM 41.0 °F 30.9 °F 33.8 °F 76% 30.06 in 10.0 mi NNE 24.2 mph 32.2 mph N/A   Overcast
4:51 AM 41.0 °F 31.6 °F 35.6 °F 81% 30.07 in 10.0 mi NNE 20.7 mph 27.6 mph N/A   Overcast
4:58 AM 40.5 °F 30.7 °F 35.4 °F 82% 30.06 in 10.0 mi NNE 21.9 mph 27.6 mph 0.00 in   Overcast
5:00 AM 41.0 °F 31.4 °F 35.6 °F 81% 30.06 in 10.0 mi NNE 21.9 mph 27.6 mph N/A   Overcast
5:58 AM 39.6 °F 30.0 °F 34.5 °F 82% 30.06 in 10.0 mi NNE 19.6 mph 29.9 mph 0.00 in   Overcast
6:58 AM 39.6 °F 30.3 °F 34.9 °F 83% 30.08 in 10.0 mi NNE 18.4 mph - N/A   Overcast
7:13 AM 39.2 °F 28.5 °F 33.8 °F 81% 30.08 in 10.0 mi NE 24.2 mph 28.8 mph N/A   Overcast
7:43 AM 39.2 °F 29.6 °F 33.8 °F 81% 30.10 in 10.0 mi NNE 19.6 mph 27.6 mph N/A   Overcast
7:53 AM 39.2 °F 29.3 °F 33.8 °F 81% 30.10 in 10.0 mi NNE 20.7 mph - N/A   Overcast
7:58 AM 39.4 °F 29.5 °F 34.0 °F 81% 30.12 in 10.0 mi NNE 20.7 mph - N/A   Overcast
8:08 AM 39.2 °F 29.0 °F 33.8 °F 81% 30.11 in 10.0 mi NNE 21.9 mph 28.8 mph N/A   Overcast
8:38 AM 39.2 °F 29.8 °F 33.8 °F 81% 30.11 in 10.0 mi NNE 18.4 mph 25.3 mph N/A   Overcast
8:58 AM 38.5 °F 27.8 °F 34.2 °F 84% 30.13 in 10.0 mi NNE 23.0 mph 26.5 mph N/A   Overcast
8:59 AM 39.2 °F 28.7 °F 33.8 °F 81% 30.12 in 10.0 mi NNE 23.0 mph 26.5 mph N/A Rain Light Rain
9:07 AM 37.4 °F 26.4 °F 35.6 °F 93% 30.11 in 10.0 mi NNE 23.0 mph 28.8 mph N/A   Overcast
9:28 AM 37.4 °F 28.2 °F 35.6 °F 93% 30.12 in 10.0 mi NE 16.1 mph 31.1 mph N/A   Overcast
9:31 AM 37.4 °F 26.9 °F 35.6 °F 93% 30.11 in 10.0 mi NE 20.7 mph 24.2 mph N/A Rain Light Rain
9:58 AM 38.1 °F 29.1 °F 36.9 °F 95% 30.14 in 10.0 mi NNE 16.1 mph 26.5 mph 0.00 in   Light Drizzle
10:19 AM 37.4 °F 28.9 °F 37.4 °F 100% 30.12 in 10.0 mi NNE 13.8 mph 27.6 mph N/A   Overcast
10:22 AM 37.4 °F 26.9 °F 37.4 °F 100% 30.12 in 10.0 mi NNE 20.7 mph 25.3 mph N/A   Overcast
10:25 AM 37.4 °F 26.6 °F 37.4 °F 100% 30.12 in 10.0 mi NNE 21.9 mph 27.6 mph N/A Rain Light Rain
10:34 AM 37.4 °F 28.2 °F 37.4 °F 100% 30.12 in 10.0 mi NNE 16.1 mph 29.9 mph N/A   Overcast
10:39 AM 37.4 °F 26.4 °F 37.4 °F 100% 30.12 in 10.0 mi NNE 23.0 mph 26.5 mph N/A   Overcast
10:42 AM 37.4 °F 26.6 °F 37.4 °F 100% 30.12 in 10.0 mi NNE 21.9 mph 28.8 mph N/A Rain Light Rain
10:58 AM 38.3 °F 29.0 °F 37.4 °F 97% 30.14 in 10.0 mi NNE 17.3 mph 27.6 mph 0.00 in Rain Light Rain
11:08 AM 39.2 °F 29.8 °F 37.4 °F 93% 30.13 in 10.0 mi NNE 18.4 mph 29.9 mph N/A   Overcast
11:13 AM 39.2 °F 29.8 °F 37.4 °F 93% 30.14 in 10.0 mi NNE 18.4 mph 29.9 mph N/A Rain Light Rain
11:30 AM 39.2 °F 30.8 °F 37.4 °F 93% 30.14 in 10.0 mi NNE 15.0 mph 24.2 mph N/A   Overcast
11:46 AM 39.2 °F 30.2 °F 37.4 °F 93% 30.13 in 10.0 mi NNE 17.3 mph - N/A Rain Light Rain
11:49 AM 39.2 °F 29.8 °F 37.4 °F 93% 30.13 in 10.0 mi NNE 18.4 mph - N/A Rain Light Rain
11:58 AM 38.7 °F 28.8 °F 38.1 °F 98% 30.15 in 8.0 mi NNE 19.6 mph - 0.00 in Rain Light Rain
12:13 PM 39.2 °F 29.6 °F 39.2 °F 100% 30.13 in 3.0 mi NNE 19.6 mph 24.2 mph N/A   Light Drizzle
12:23 PM 39.2 °F 29.6 °F 39.2 °F 100% 30.13 in 3.0 mi NNE 19.6 mph - N/A   Light Drizzle
12:58 PM 39.6 °F 30.0 °F 39.4 °F 99% 30.14 in 4.0 mi NNE 19.6 mph 24.2 mph 0.00 in Rain Light Rain
1:03 PM 39.2 °F 29.8 °F 39.2 °F 100% 30.12 in 2.0 mi NNE 18.4 mph - N/A Rain Light Rain
1:13 PM 39.2 °F 29.8 °F 39.2 °F 100% 30.12 in 1.8 mi NNE 18.4 mph - N/A Rain Light Rain
1:24 PM 39.2 °F 30.2 °F 39.2 °F 100% 30.12 in 2.0 mi NNE 17.3 mph 25.3 mph N/A Rain Light Rain
1:30 PM 39.2 °F 29.3 °F 39.2 °F 100% 30.11 in 4.0 mi NNE 20.7 mph - N/A Rain Light Rain
1:45 PM 39.2 °F 29.6 °F 39.2 °F 100% 30.11 in 6.0 mi NNE 19.6 mph - N/A Rain Light Rain
1:50 PM 39.2 °F 29.6 °F 39.2 °F 100% 30.11 in 7.0 mi NNE 19.6 mph - N/A   Light Drizzle
1:51 PM 39.2 °F 30.5 °F 39.2 °F 100% 30.11 in 7.0 mi NNE 16.1 mph - N/A   Overcast
1:58 PM 39.9 °F 31.1 °F 39.6 °F 99% 30.13 in 3.0 mi NNE 17.3 mph - 0.00 in   Overcast
2:02 PM 39.2 °F 30.2 °F 39.2 °F 100% 30.11 in 8.0 mi NNE 17.3 mph - N/A Rain Light Rain
2:10 PM 39.2 °F 29.8 °F 39.2 °F 100% 30.11 in 3.0 mi NNE 18.4 mph - N/A Rain Light Rain
2:21 PM 39.2 °F 30.2 °F 39.2 °F 100% 30.11 in 4.0 mi NNE 17.3 mph - N/A Rain Light Rain
2:33 PM 41.0 °F 32.2 °F 39.2 °F 93% 30.11 in 3.0 mi NNE 18.4 mph - N/A Rain Light Rain
2:36 PM 41.0 °F 32.5 °F 39.2 °F 93% 30.10 in 6.0 mi NNE 17.3 mph - N/A Rain Light Rain
2:41 PM 41.0 °F 32.5 °F 39.2 °F 93% 30.10 in 3.0 mi NNE 17.3 mph - N/A Rain Light Rain
2:58 PM 40.5 °F 32.1 °F 40.3 °F 99% 30.12 in 2.0 mi NNE 16.1 mph 25.3 mph 0.00 in Rain Light Rain
3:27 PM 41.0 °F 31.9 °F 39.2 °F 93% 30.09 in 2.0 mi NNE 19.6 mph 26.5 mph N/A   Overcast
3:56 PM 41.0 °F 32.2 °F 41.0 °F 100% 30.09 in 3.0 mi NNE 18.4 mph - N/A   Overcast
5:01 PM 41.0 °F 32.5 °F 41.0 °F 100% 30.08 in 4.0 mi NE 17.3 mph - N/A Rain Light Rain
5:02 PM 41.0 °F 32.8 °F 41.0 °F 100% 30.08 in 4.0 mi NNE 16.1 mph - N/A Rain Light Rain
5:07 PM 41.0 °F 31.4 °F 41.0 °F 100% 30.07 in 4.0 mi NNE 21.9 mph 26.5 mph N/A Rain Light Rain
5:17 PM 41.0 °F 31.6 °F 41.0 °F 100% 30.07 in 4.0 mi NNE 20.7 mph 29.9 mph N/A Rain Light Rain
5:32 PM 41.0 °F 32.2 °F 41.0 °F 100% 30.06 in 3.0 mi NNE 18.4 mph - N/A Rain Light Rain
5:58 PM 40.6 °F 31.4 °F 40.3 °F 99% 30.09 in 5.0 mi NNE 19.6 mph 26.5 mph 0.00 in Rain Light Rain
6:03 PM 41.0 °F 31.9 °F 39.2 °F 93% 30.07 in 5.0 mi NNE 19.6 mph - N/A Rain Light Rain
6:08 PM 41.0 °F 31.6 °F 41.0 °F 100% 30.07 in 5.0 mi NNE 20.7 mph - N/A Rain Light Rain
6:18 PM 41.0 °F 31.4 °F 41.0 °F 100% 30.06 in 5.0 mi NNE 21.9 mph - N/A Rain Light Rain
6:27 PM 39.2 °F 29.3 °F 39.2 °F 100% 30.06 in 8.0 mi NNE 20.7 mph - N/A   Overcast
6:32 PM 39.2 °F 29.0 °F 39.2 °F 100% 30.06 in 10.0 mi NNE 21.9 mph 27.6 mph N/A   Overcast
6:49 PM 39.2 °F 29.6 °F 39.2 °F 100% 30.07 in 8.0 mi NNE 19.6 mph 27.6 mph N/A Rain Light Rain
7:02 PM 39.2 °F 29.3 °F 39.2 °F 100% 30.06 in 6.0 mi NNE 20.7 mph - N/A   Overcast
7:17 PM 39.2 °F 28.7 °F 39.2 °F 100% 30.07 in 6.0 mi NNE 23.0 mph 26.5 mph N/A   Overcast
7:27 PM 39.2 °F 28.7 °F 39.2 °F 100% 30.07 in 8.0 mi NNE 23.0 mph 27.6 mph N/A   Overcast
7:54 PM 39.2 °F 30.2 °F 39.2 °F 100% 30.08 in 7.0 mi NE 17.3 mph - N/A   Overcast
7:58 PM 39.4 °F 30.1 °F 39.2 °F 99% 30.10 in 7.0 mi NE 18.4 mph - 0.00 in   Overcast
8:23 PM 39.2 °F 30.2 °F 39.2 °F 100% 30.09 in 7.0 mi NNE 17.3 mph 24.2 mph N/A Rain Light Rain
8:54 PM 39.2 °F 30.8 °F 39.2 °F 100% 30.10 in 6.0 mi NNE 15.0 mph - N/A   Overcast
8:58 PM 39.2 °F 30.8 °F 39.0 °F 99% 30.12 in 6.0 mi NNE 15.0 mph - 0.00 in   Overcast
9:58 PM 39.0 °F 31.0 °F 39.0 °F 100% 30.13 in 10.0 mi NNE 13.8 mph - N/A   Overcast
10:29 PM 39.2 °F 30.5 °F 39.2 °F 100% 30.11 in 7.0 mi NE 16.1 mph - N/A   Overcast
10:34 PM 39.2 °F 31.2 °F 39.2 °F 100% 30.11 in 6.0 mi NNE 13.8 mph - N/A Rain Light Rain
10:58 PM 39.2 °F 30.5 °F 39.2 °F 100% 30.13 in 4.0 mi NNE 16.1 mph - 0.00 in   Overcast
11:03 PM 39.2 °F 30.5 °F 39.2 °F 100% 30.11 in 4.0 mi NNE 16.1 mph - N/A   Overcast
11:33 PM 39.2 °F 31.6 °F 39.2 °F 100% 30.12 in 7.0 mi NNE 12.7 mph - N/A Rain Light Rain
11:58 PM 39.2 °F 30.8 °F 39.2 °F 100% 30.14 in 6.0 mi NNE 15.0 mph - 0.00 in Rain Light Rain